Regional Weather Roundup
Issued by NWS Grand Forks, ND

Home | Current Version | Previous Version | Text Only | Print | Product List | Glossary Off
Versions: 1 2 3 4 5 6 7 8 9 10 11 12 13 14 15 16 17 18 19 20 21 22 23 24 25 26 27 28 29 30 31 32 33 34 35 36 37 38 39 40 41 42 43 44 45 46 47 48 49 50

000
ASUS43 KFGF 301910
RWRFGF
PRAIRIE TO PINES  WEATHER ROUNDUP
NATIONAL WEATHER SERVICE EASTERN NORTH DAKOTA/GRAND FORKS ND
200 PM CDT SAT MAY 30 2015

 **SATELLITE DATA USED TO AUGMENT SKY COVER AT AUTOMATED STATIONS**
 *****  WEATHER ACROSS EASTERN NORTH DAKOTA  *****

CITY           SKY/WX    TMP DP  RH WIND       PRES   REMARKS
GRAND FORKS    MOSUNNY   51  30  44 N9        30.38F
GRAND FRKS AFB SUNNY     51  28  41 E9        30.38F
GRAND FRKS NWS   N/A     52 N/A N/A N2          N/A
DEVILS LAKE    SUNNY     48  25  40 NE10      30.36F
FARGO          SUNNY     53  36  52 N10       30.35F
WAHPETON ARPT  CLEAR     50  36  57 N13       30.33F
$$

 ***** WEATHER ACROSS CENTRAL AND WESTERN NORTH DAKOTA  *****

CITY           SKY/WX    TMP DP  RH WIND       PRES   REMARKS
BISMARCK       SUNNY     55  33  43 MISG      30.34F
MINOT          SUNNY     53  29  39 E14       30.33F
JAMESTOWN      MOSUNNY   52  33  48 NE12      30.35F
MINOT AFB      MOSUNNY   55  32  41 SE13      30.32F
GARRISON         N/A     54  31  41 SE12G21   30.31F
WILLISTON      SUNNY     60  35  39 SE16G24   30.24F
DICKINSON      SUNNY     57  36  45 SE23G29   30.22F
HETTINGER      SUNNY     57  38  48 SE15G28   30.25F
$$

 *****  OTHER AIRPORT OBSERVATIONS IN OUR AREA  *****

CITY           SKY/WX    TMP DP  RH WIND       PRES   REMARKS
WALHALLA         N/A     48  28  46 MISG      30.40F
GRAFTON AIRPOR FAIR      48  30  49 VRB5G15   30.40F
VALLEY CITY AR FAIR      50  30  46 NE9G16    30.36F
CANDO          FAIR      48  23  37 NE8       30.38F
CAVALIER APRT  FAIR      48  28  46 NE9       30.40F
GWINNER        NOT AVBL
SHEYENNE NWR     N/A     52  33  48 N9        29.95S
ROLLA          FAIR      46  23  39 E3        30.38F
 ***** THE ABOVE OBSERVATIONS ARE NON NWS ARE NOT QUALITY
       CONTROLLED AND MAY MIS-REPORT RAIN FOR SNOW...
$$

  *****  WEATHER ACROSS NORTHERN MINNESOTA  *****

CITY           SKY/WX    TMP DP  RH WIND       PRES   REMARKS
FLAG ISLAND    SUNNY     45  27  49 N7        30.38S
WARROAD        SUNNY     45  34  65 E8        30.39F
ROSEAU         SUNNY     52  28  40 CALM      30.37F
HALLOCK        SUNNY     52  27  37 CALM      30.38F
THF RVR FALLS  SUNNY     48  30  49 N5        30.37F
BAUDETTE       SUNNY     49  32  52 NW13      30.36F
WASKISH        SUNNY     52  34  50 SW8       30.35F
CROOKSTON      SUNNY     52  30  43 NE6       30.38F
STEPHEN NDAWN    N/A     52  30  43 N6          N/A
GREENBUSH NDAW   N/A     50  32  50 E7          N/A
$$
  *****  WEATHER ACROSS CENTRAL AND WEST MINNESOTA  *****

CITY           SKY/WX    TMP DP  RH WIND       PRES   REMARKS
FOSSTON        SUNNY     52  36  54 CALM      30.35F
BEMIDJI        SUNNY     51  30  43 N3        30.33F
PARK RAPIDS    SUNNY     55  25  31 E9G16     30.30F
ELBOW LAKE     FAIR      53  36  53 N10       30.31S
WADENA         SUNNY     54  34  47 N10       30.30F
DETROIT LAKES  SUNNY     52  34  50 N5        30.32F
MOORHEAD       SUNNY     52  36  54 N10       30.35F
FERGUS FALLS   SUNNY     54  36  50 N5        30.33F
MORRIS MN      SUNNY     55  39  54 N15       30.30F
STAPLES        SUNNY     54  28  37 E6        30.30F
$$
  *****  WEATHER ELSEWHERE ACROSS MINNESOTA  *****

CITY           SKY/WX    TMP DP  RH WIND       PRES   REMARKS
DULUTH         MOSUNNY   52  35  52 E9        30.27S
INTRNTL FALLS  SUNNY     48  28  46 VRB6      30.35F
ELY            NOT AVBL
CLOQUET        SUNNY     55  27  33 NE9       30.27F
WHEATON        SUNNY     52  37  58 N14       30.35F
BRAINERD       SUNNY     55  32  41 N6        30.29F
HIBBING        SUNNY     54  29  38 NE7G17    30.30F
ALEXANDRIA     SUNNY     55  36  48 N12       30.30F
SAINT CLOUD    SUNNY     58  37  45 NE9       30.27S
MINNEAPOLIS    PTSUNNY   61  43  51 NE8G20    30.23F
$$

  *****  WEATHER ACROSS SOUTH DAKOTA  *****

CITY           SKY/WX    TMP DP  RH WIND       PRES   REMARKS
SIOUX FALLS    MOSUNNY   58  43  57 N14       30.26F
BROOKINGS      SUNNY     52  39  62 N9G20     30.29F
WATERTOWN      SUNNY     54  36  50 N12G17    30.30F
HURON          SUNNY     58  34  40 NE8       30.29F
SISSETON         N/A     52  37  56 N13       30.33F
ABERDEEN       SUNNY     52  33  48 NE8       30.34F
MITCHELL       SUNNY     60  38  43 NE14G20   30.29F
PIERRE         SUNNY     57  37  47 E7        30.30F
MOBRIDGE       PTSUNNY   57  34  41 VRB5      30.31F
RAPID CITY     SUNNY     60  44  55 S18G24    30.23F
$$

  *****  SOME WEATHER IN NEARBY STATES *****

CITY           SKY/WX    TMP DP  RH WIND       PRES   REMARKS
GLASGOW MT     MOSUNNY   65  38  36 SE23G35   30.08F
GREAT FALLS MT CLOUDY    59  53  80 CALM      30.02F
CHEYENNE WY    MOSUNNY   63  46  54 S9G20     30.26F
SCOTTSBLUFF NE MOSUNNY   63  50  62 SE16      30.24F
OMAHA NE       PTSUNNY   64  46  52 N16       30.18F
DES MOINES IA  CLOUDY    63  52  67 N10       30.12S
DAVENPORT IA   CLOUDY    62  56  80 N21G30    30.02R
CHICAGO IL     LGT RAIN  50  48  93 N20G26    30.05S
EAU CLAIRE WI  CLOUDY    56  45  66 N9        30.22R
LA CROSSE WI   CLOUDY    61  51  70 N9        30.17R
$$

  *****  SOME NATIONAL WEATHER *****

CITY           SKY/WX    TMP DP  RH WIND       PRES   REMARKS
LA GUARDIA NY  MOSUNNY   82  63  52 S22G29    30.12F
RALEIGH NC     PTSUNNY   84  65  52 SE6       30.17F
ATLANTA GA     PTSUNNY   83  61  47 SE6       30.14F
NEW ORLEANS LA PTSUNNY   83  68  60 NE7       30.04F
OKLAHOMA CITY  PTSUNNY   67  54  63 N17       30.15F
ALBUQUERQUE NM MOSUNNY   75  43  31 S8        30.27F
SALT LAKE CITY PTSUNNY   79  41  25 S15G21    30.08F
LOS ANGELES CA MOSUNNY   64  58  80 W9        29.98S
BOISE ID       CLOUDY    76  48  37 NW8       29.96S
SEATTLE WA     MOSUNNY   60  46  59 SW8       29.98S
$$

*** WEATHER ACROSS MANITOBA...SASKATCHEWAN AND ONTARIO ***
                ***ONTARIO***

CITY           SKY/WX    TMP DP  RH WIND       PRES   REMARKS
GERALDTON      PTSUNNY   43  30  61 N14G21    30.27R
THUNDER BAY    SUNNY     54  27  35 NW12G17   30.29F
SIOUX LOOKOUT  MOSUNNY   45  25  45 NW3       30.37S
TORONTO        LGT RAIN  72  66  83 SW14      29.94R
BIG TROUT LK   CLOUDY    30  25  80 NW12G17   30.37S WCI  21
PICKLE LAKE    PTSUNNY   39  23  52 N7        30.35F
DRYDEN         SUNNY     46  23  39 VRB6      30.35F
KENORA         MOSUNNY   48  27  43 NE7       30.37F
$$
                *** MANITOBA***

CITY           SKY/WX    TMP DP  RH WIND       PRES   REMARKS
BRANDON        PTSUNNY   50  28  43 SE8       30.39F
DAUPHIN        SUNNY     50  32  50 E9        30.39F
ISLAND LAKE    NOT AVBL
PILOT MOUND      N/A     46  25  42 NE5         N/A
THE PAS        MOSUNNY   52  19  28 S12G17    30.34F
THOMPSON       MOSUNNY   55  25  30 W8G20     30.26F
WINNIPEG       MOSUNNY   46  25  42 NE6       30.43F
LYNN LAKE      MOSUNNY   57  23  26 W14G21    30.20F
CHURCHILL      PTSUNNY   50  27  40 NW7       30.11F
GILLAM         SUNNY     45  25  45 W15G22    30.26F
$$
                ***SASKATCHEWAN***

CITY           SKY/WX    TMP DP  RH WIND       PRES   REMARKS
ESTEVAN        MOSUNNY   55  34  44 SE16G23   30.29F
KINDERSLEY     PTSUNNY   64  32  29 SE25G31   30.11F
LLOYDMINSTER   MOSUNNY   59  25  27 SE20      30.15F
PRINCE ALBERT  MOSUNNY   57  25  28 S10       30.27F
REGINA         MOSUNNY   57  34  41 SE18G25   30.26F
YORKTON        SUNNY     52  23  32 S10       30.33F
N. BATTLEFORD  MOSUNNY   59  30  33 SE9G21    30.21F
LA RONGE       MOSUNNY   59  28  31 SE12      30.23F
SASKATOON      PTSUNNY   59  32  36 SE15G22   30.24F
SWIFT CURRENT  CLOUDY    61  34  36 SE16G29   30.10F
$$
NOTE: THESE ARE AUTOMATED STATIONS WITH LIMITED QUALITY CONTROL
      "FAIR" INDICATES FEW OR NO CLOUDS BELOW 12,000 FEET WITH NO
      SIGNIFICANT WEATHER AND/OR OBSTRUCTIONS TO VISIBILITY.
      SKY/WX - SKY CONDITION AND SIGNIFICANT WEATHER.
      TMP - AIR TEMPERATURE.    DP   - DEWPOINT TEMPERATURE.
      RH  - RELATIVE HUMIDITY.  PRES - PRESSURE.
      HX  - HEAT INDEX.         WCI  - WIND CHILL INDEX.
$



USA.gov is the U.S. government's official web portal to all federal, state and local government web resources and services.